weather.gov     
National Weather Service

Regional Weather Roundup
NWS Homepage
This page is being discontinued on March 12, 2014.
The same data is available at this site. Please update your bookmarks.
Thank you, and we apologize for the inconvenience.
Please send an email to SR-SRH.Webmaster@noaa.gov with any concerns.


Current Version
Previous Version:    01  02  03  04  05  06  07  08  09  10  11  12  13  14  15  16  17  18  19  20  21  22  23  24  25  26  27  28  29  30  
   31  32  33  34  35  36  37  38  39  40  41  42  43  44  45  46  47  48  49  50  51  52  53  
[Printable]
023
ASUS45 KABQ 211510
RWRNM
WEATHER ROUNDUP FOR NEW MEXICO
NATIONAL WEATHER SERVICE ALBUQUERQUE NM
800 AM MST SUN DEC 21 2014

NOTE: "FAIR" MEANS FEW OR NO CLOUDS BELOW 12,000 FEET AGL WITH NO
       SIGNIFICANT WEATHER OR OBSTRUCTIONS TO VISION.

      THIS PRODUCT IS RELEASED AS TWO VERSIONS.  ONE VERSION NEAR
      THE TOP OF THE HOUR CONTAINING PRELIMINARY DATA FROM ALBUQUERQUE
      AND OTHER STATIONS.  A FINAL VERSION WITH ADDITIONAL DATA IS
      ISSUED ABOUT 10 MINUTES AFTER THE HOUR.

NMZ501-503-504-510>518-211600-
NORTHWEST PLATEAU/NORTHCENTRAL MOUNTAINS

CITY           SKY/WX    TMP DP  RH WIND       PRES   REMARKS
FARMINGTON     CLEAR     28  27  96 NW5       30.07R WCI  23
LOS ALAMOS     MOCLDY    28  24  84 CALM      30.00F
SANTA FE       MOCLDY    33  23  66 N15       29.99R WCI  23
TAOS           MOCLDY    27  19  74 CALM      30.01S
ANGEL FIRE     FAIR      27  21  80 W14       29.97F WCI  15

$$
NMZ402-403-502-505>509-211600-
WESTCENTRAL MOUNTAINS/SOUTHWEST MOUNTAINS

CITY           SKY/WX    TMP DP  RH WIND       PRES   REMARKS
GALLUP         MOCLDY    27  23  85 CALM      30.08F
GRANTS         MOCLDY    30  24  79 NW14      30.07R WCI  19
SILVER CITY    CLEAR     36  28  75 NW8       30.09F WCI  29

$$
NMZ407-409-411-412-211600-
SOUTHERN DESERTS

CITY           SKY/WX    TMP DP  RH WIND       PRES   REMARKS
LORDSBURG      FAIR      32  30  93 CALM      30.10F
DEMING         CLEAR     34  30  85 SW8       30.08F WCI  27
LAS CRUCES     CLEAR     32  30  91 CALM      30.08F
HOLLOMAN AFB   PTCLDY    30  25  79 SE1       30.04F
ALAMOGORDO     PTCLDY    32  27  80 SE7       30.05F WCI  26
T OR C         CLEAR     34  26  72 CALM      30.04F

$$
NMZ519>523-211600-
CENTRAL VALLEYS/CENTRAL HIGHLANDS

CITY           SKY/WX    TMP DP  RH WIND       PRES   REMARKS
ALBUQUERQUE    MOCLDY    30  24  78 CALM      30.05R
DOUBLE EAGLE   MOCLDY    30  27  86 CALM      30.05S
MORIARTY ARPT  FAIR      36  24  60 CALM      29.98R
CLINES CORNERS PTCLDY    30  23  75 NW24G32   29.92S WCI  16
BELEN          FAIR      26  25  96 CALM      30.04S
SOCORRO        FAIR      28  24  84 SE3       30.05S

$$
NMZ524>526-539-540-211600-
SOUTHCENTRAL MOUNTAINS

CITY           SKY/WX    TMP DP  RH WIND       PRES   REMARKS
RUIDOSO        CLEAR     37  19  48 NW16      30.01R WCI  28

$$
NMZ527>531-211600-
NORTHEAST HIGHLANDS/NORTHEAST PLAINS

CITY           SKY/WX    TMP DP  RH WIND       PRES   REMARKS
LAS VEGAS      MOCLDY    26  17  68 W7        29.87F WCI  18
RATON          MOCLDY    27  17  66 N3        29.84S
CLAYTON        PTCLDY    36  20  52 W12       29.80F WCI  28

$$
NMZ532>537-211600-
EASTCENTRAL PLAINS

CITY           SKY/WX    TMP DP  RH WIND       PRES   REMARKS
TUCUMCARI      PTCLDY    35  24  64 W6        29.83F WCI  30
CANNON AFB     SUNNY     37  24  58 W13       29.88F WCI  29
CLOVIS AIRPORT SUNNY     39  23  52 W16       29.87S WCI  30

$$
NMZ028-029-538-211600-
SOUTHEAST PLAINS

CITY           SKY/WX    TMP DP  RH WIND       PRES   REMARKS
ROSWELL        SUNNY     32  23  69 SE5       29.93F WCI  27
ARTESIA        SUNNY     43  25  49 SW10      29.95F
CARLSBAD       SUNNY     39  29  67 SE8       29.96F WCI  33
HOBBS          SUNNY     34  34 100 SW5       29.96F WCI  30


$$




U.S. Dept. of Commerce
NOAA National Weather Service
1325 East West Highway
Silver Spring, MD 20910
E-mail: w-nws.webmaster@noaa.gov
Page last modified: May 16, 2007
NATIONAL WEATHER SERVICE: for Safety, for Work, for Fun - FOR LIFE